Inquirer Daily News

Weather

Get conditions and forecasts for any City, State, ZIP code or Country:  
Trenton, NJ
on Saturday, January 5, 2013

Saturday
Previous Day Next Day
Daily Summary
 ActualAverageRecord
Temperature
Mean Temperature °F 31°F  
Max Temperature 42°F 39°F 64°F (1950)
Min Temperature 29°F 23°F -3°F (1904)
Degree Days
Heating Degree Days 29 34  
Month to date heating degree days 166 169  
Since 1 July heating degree days 1924 2064  
Cooling Degree Days 0 0  
Month to date cooling degree days 0 0  
Year to date cooling degree days 0 0  
Moisture
Dew Point 20°F   
Average Humidity 59    
Maximum Humidity 72    
Minimum Humidity 45    
Precipitation
Precipitation 0.00 in 0.13 in 1.45 in (1934)
Month to date precipitation 0.00 0.57  
Year to date precipitation 0.00 0.57  
Wind
Wind Speed 6 mph   
Max Wind Speed 15 mph   
Max Gust Speed 20 mph   
Visibility 10 miles   
Events     

Key: T is trace of precipitation, MM is missing value
Source: NWS Daily Summary
Time(EST)TemperatureDew PointHumidity Pressure Visibility Wind DirectionWind SpeedGust SpeedPrecipitationEvents Conditions
12:53 AM 32.0°F 19.0°F 59% 30.05 in 10.0 miles WNW 5.8 mph - N/A   Clear
1:53 AM 33.1°F 18.0°F 54% 30.07 in 10.0 miles NW 8.1 mph - N/A   Clear
2:53 AM 32.0°F 18.0°F 56% 30.09 in 10.0 miles NNW 8.1 mph - N/A   Clear
3:53 AM 32.0°F 18.0°F 56% 30.12 in 10.0 miles NNW 9.2 mph - N/A   Clear
4:53 AM 32.0°F 18.0°F 56% 30.17 in 10.0 miles NW 4.6 mph - N/A   Clear
5:53 AM 30.9°F 18.0°F 59% 30.19 in 10.0 miles WNW 4.6 mph - N/A   Clear
6:53 AM 30.0°F 18.0°F 61% 30.22 in 10.0 miles WNW 6.9 mph - N/A   Clear
7:53 AM 30.0°F 18.0°F 61% 30.24 in 10.0 miles West 4.6 mph - N/A   Clear
8:53 AM 32.0°F 19.0°F 59% 30.26 in 10.0 miles NW 6.9 mph - N/A   Clear
9:53 AM 35.1°F 19.9°F 54% 30.28 in 10.0 miles NW 12.7 mph 18.4 mph N/A   Clear
10:53 AM 37.9°F 21.0°F 51% 30.32 in 10.0 miles NNW 10.4 mph - N/A   Scattered Clouds
11:53 AM 39.9°F 21.0°F 47% 30.27 in 10.0 miles Variable 6.9 mph - N/A   Clear
12:53 PM 39.9°F 21.0°F 47% 30.26 in 10.0 miles NW 10.4 mph - N/A   Clear
1:53 PM 41.0°F 21.0°F 45% 30.24 in 10.0 miles NW 9.2 mph 16.1 mph N/A   Clear
2:53 PM 39.9°F 21.0°F 47% 30.25 in 10.0 miles WNW 8.1 mph - N/A   Clear
3:53 PM 39.9°F 21.0°F 47% 30.24 in 10.0 miles WNW 5.8 mph - N/A   Clear
4:53 PM 37.9°F 21.0°F 51% 30.25 in 10.0 miles WNW 3.5 mph - N/A   Clear
5:53 PM 36.0°F 21.0°F 55% 30.27 in 10.0 miles WNW 3.5 mph - N/A   Clear
6:53 PM 35.1°F 21.0°F 57% 30.26 in 10.0 miles West 3.5 mph - N/A   Clear
7:53 PM 33.1°F 21.0°F 61% 30.24 in 10.0 miles Calm Calm - N/A   Clear
8:53 PM 30.9°F 21.0°F 67% 30.25 in 9.0 miles Calm Calm - N/A   Clear
9:53 PM 30.0°F 21.0°F 69% 30.22 in 8.0 miles Calm Calm - N/A   Clear
10:53 PM 30.0°F 23.0°F 75% 30.23 in 8.0 miles WSW 3.5 mph - N/A   Clear
11:53 PM 32.0°F 23.0°F 69% 30.21 in 7.0 miles Calm Calm - N/A   Overcast
Astronomy
Sunrise:07:22 AM (EST) Moon Rise:12:25 AM (EST)1/5
Sunset:04:47 PM (EST) Moon Set:11:36 AM (EST)1/5
Moon Phase
Jan. 05 Jan. 11 Jan. 18 Jan. 26 Feb. 03

Copyright © 2014 The Weather Underground, Inc.